Weather History for Venice, Italy

Change the Weather History Date:

Wednesday, June 19, 2013

  Actual Average Record
Temperature  
Mean Temperature 80 °F -  
Max Temperature 87 °F 80 °F 87 °F (2002)
Min Temperature 73 °F 63 °F 57 °F (1999)
Cooling Degree Days 15    
Growing Degree Days 30 (Base 50)    
Moisture  
Dew Point 71 °F    
Average Humidity 71    
Maximum Humidity 89    
Minimum Humidity 52    
Precipitation  
Precipitation 0.00 in 0.09 in - ()
Sea Level Pressure  
Sea Level Pressure 29.98 in    
Wind  
Wind Speed 3 mph ()    
Max Wind Speed 8 mph    
Max Gust Speed -    
Visibility 4.4 miles    
Events      
Averages and records for this station are not official NWS values.
T = Trace of Precipitation, MM = Missing Value Source: Averaged Metar Reports

Daily Weather History Graph

Daily Weather History Graph

Search for Another Location

Airport:

Trip Planner

Search our weather history database for the weather conditions in past years. The results will help you decide how hot, cold, wet, or windy it might be!

Date:

Astronomy

Jun. 19, 2013 Rise Set
Actual Time 5:21 AM CEST 9:02 PM CEST
Civil Twilight 4:43 AM CEST 9:40 PM CEST
Nautical Twilight 3:52 AM CEST 10:31 PM CEST
Astronomical Twilight 2:43 AM CEST 11:40 PM CEST
Moon 4:26 PM CEST (6/19) 2:06 AM CEST (6/19)
Length of Visible Light 16h 57m
Length of Day
15h 41m
Waxing Gibbous, 78% of the Moon is Illuminated
Jun 19
Waxing Gibbous
Jun 23
Full
Jun 30
Last Quarter
Jul 8
New
Jul 16
First Quarter

Hourly Weather History & Observations

Time (CEST) Temp. Heat Index Dew Point Humidity Pressure Visibility Wind Dir Wind Speed Gust Speed Precip Events Conditions
12:20 AM 78.8 °F - 71.6 °F 78% 30.01 in - Variable 1.2 mph - N/A   Clear
12:50 AM 78.8 °F - 71.6 °F 78% 30.01 in - Variable 3.5 mph - N/A   Clear
1:20 AM 77.0 °F - 71.6 °F 83% 30.01 in - Variable 2.3 mph - N/A   Clear
1:50 AM 77.0 °F - 71.6 °F 83% 30.01 in - Variable 2.3 mph - N/A   Clear
2:20 AM 77.0 °F - 71.6 °F 83% 30.01 in - Variable 1.2 mph - N/A   Clear
2:50 AM 77.0 °F - 69.8 °F 78% 29.98 in - Calm Calm - N/A   Clear
3:20 AM 77.0 °F - 71.6 °F 83% 29.98 in - Calm Calm - N/A   Clear
3:50 AM 78.8 °F - 71.6 °F 78% 29.98 in - Calm Calm - N/A   Clear
4:20 AM 77.0 °F - 69.8 °F 78% 29.98 in - Variable 1.2 mph - N/A   Clear
4:50 AM 73.4 °F - 68.0 °F 83% 30.01 in - Variable 1.2 mph - N/A   Clear
6:50 AM 77.0 °F - 73.4 °F 89% 30.01 in 5.0 mi Variable 3.5 mph - N/A   Unknown
7:20 AM 75.2 °F - 71.6 °F 89% 30.01 in 2.5 mi Variable 2.3 mph - N/A   Mist
7:50 AM 78.8 °F - 75.2 °F 89% 29.98 in 2.5 mi Variable 2.3 mph - N/A   Mist
8:20 AM 78.8 °F - 73.4 °F 83% 30.01 in 2.5 mi Variable 2.3 mph - N/A   Mist
8:50 AM 80.6 °F 85.4 °F 73.4 °F 79% 30.01 in 3.7 mi Variable 1.2 mph - N/A   Unknown
9:20 AM 82.4 °F 89.5 °F 75.2 °F 79% 30.01 in 4.3 mi Variable 2.3 mph - N/A   Unknown
9:50 AM 82.4 °F 88.2 °F 73.4 °F 74% 30.01 in 5.0 mi Variable 2.3 mph - N/A   Unknown
10:20 AM 84.2 °F 90.9 °F 73.4 °F 70% 30.01 in 6.2 mi Variable 2.3 mph - N/A   Partly Cloudy
10:50 AM 84.2 °F 89.6 °F 71.6 °F 66% 30.01 in - Variable 2.3 mph - N/A   Clear
11:50 AM 84.2 °F 92.3 °F 75.2 °F 74% 30.01 in 6.2 mi Variable 2.3 mph - N/A   Partly Cloudy
12:20 PM 86.0 °F 91.8 °F 71.6 °F 62% 30.01 in 6.2 mi Variable 3.5 mph - N/A   Partly Cloudy
12:50 PM 86.0 °F 91.8 °F 71.6 °F 62% 30.01 in - SE 4.6 mph - N/A   Clear
1:20 PM 86.0 °F 91.8 °F 71.6 °F 62% 30.01 in - SE 4.6 mph - N/A   Clear
1:50 PM 86.0 °F 91.8 °F 71.6 °F 62% 29.98 in - SE 6.9 mph - N/A   Clear
2:20 PM 86.0 °F 91.8 °F 71.6 °F 62% 29.98 in - SSE 6.9 mph - N/A   Clear
2:50 PM 86.0 °F 93.4 °F 73.4 °F 66% 29.98 in - SE 8.1 mph - N/A   Clear
3:20 PM 86.0 °F 91.8 °F 71.6 °F 62% 29.98 in - SE 6.9 mph - N/A   Clear
3:50 PM 87.8 °F 91.4 °F 68.0 °F 52% 29.98 in - SSE 8.1 mph - N/A   Clear
4:20 PM 87.8 °F 95.6 °F 73.4 °F 62% 29.98 in - SE 8.1 mph - N/A   Clear
4:50 PM 86.0 °F 93.4 °F 73.4 °F 66% 29.98 in - SE 8.1 mph - N/A   Clear
5:20 PM 86.0 °F 91.8 °F 71.6 °F 62% 29.95 in - SE 6.9 mph - N/A   Clear
5:50 PM 86.0 °F 90.4 °F 69.8 °F 58% 29.95 in - SE 6.9 mph - N/A   Clear
6:20 PM 84.2 °F 89.6 °F 71.6 °F 66% 29.95 in - SE 8.1 mph - N/A   Clear
6:50 PM 84.2 °F 89.6 °F 71.6 °F 66% 29.95 in - SE 8.1 mph - N/A   Clear
7:20 PM 84.2 °F 88.4 °F 69.8 °F 62% 29.95 in - SSE 6.9 mph - N/A   Clear
7:50 PM 84.2 °F 86.6 °F 66.2 °F 55% 29.95 in - South 6.9 mph - N/A   Clear
8:20 PM 82.4 °F 85.4 °F 68.0 °F 62% 29.95 in - South 5.8 mph - N/A   Clear
8:50 PM 82.4 °F 85.4 °F 68.0 °F 62% 29.95 in - South 5.8 mph - N/A   Clear
9:20 PM 82.4 °F 86.3 °F 69.8 °F 66% 29.95 in - Variable 2.3 mph - N/A   Clear
9:50 PM 80.6 °F 83.9 °F 69.8 °F 70% 29.95 in - Variable 1.2 mph - N/A   Clear
10:20 PM 80.6 °F 83.9 °F 69.8 °F 70% 29.98 in - Variable 1.2 mph - N/A   Clear
10:50 PM 80.6 °F 84.6 °F 71.6 °F 74% 29.95 in - Variable 3.5 mph - N/A   Clear
11:20 PM 80.6 °F 84.6 °F 71.6 °F 74% 29.98 in - Variable 2.3 mph - N/A   Clear
11:50 PM 78.8 °F - 71.6 °F 78% 29.95 in - Variable 2.3 mph - N/A   Clear